ONEWEB-0147 (47293 NORAD) Tracking and Keplerian Element Data

This shows tracking and keplerian element data for the satellite.

Feedback or suggestion? Click here.




ElementValue
Catalog47293
NameONEWEB-0147
Epoch Orbit174
Epoch Day62.91667824
Epoch Year2021
RAAN15.5236
Inclination87.5326
Eccentricity0.0011666
Argument of Perigee18.0819
Mean Anonmoly322.0991
Mean Motion13.8339363
Decay Rate1.6E-07
L11 47293U 20100AM 21062.91667824 .00000016 00000-0 00000-0 0 9999
L22 47293 87.5326 15.5236 0011666 18.0819 322.0991 13.83393630 1744

Live tracking and technical data element details for ONEWEB-0147 (NORAD 47293). ONEWEB-0147 can be tracked NOW for your location showing map with azimuth and elevation plus other details from your city location.

Track the satellite on the map from your city or location and see movement details for azimuth, elevation, latitude, longitude, range, height, and movement on the map or in text.







IsCatalogInMostPopularTable: catalog: 47293, numindb: 55
Update: records affected: 1



GetName: 47293 ONEWEB-0147

Hit Count: updated at: Fri, 05 Mar 2021 06:34:54 GMT